Temperature
6 6 6 5 5 5 5 5 5 5 5 5 5 5 5 5 5 5 5 5 5 5 5 5 6 6 6 6 5 5 5 5 5 5 5 6 6 6 6 6 6 6 6
5 5 5 5 5 5 4 4 4 4 4 4 4 4 4 4 4 4 4 4 4 4 5 5 5 5 5 5 5 5 5 5 4 4 4 4 4 5 5 5 5 5 5
5 5 4 4 4 4 4 4 4 4 4 4 4 4 4 4 4 4 4 4 4 4 4 4 4 4 4 4 4 4 4 4 4 4 4 3 3 3 4 4 4 4 4
5 5 4 4 4 4 4 4 4 4 3 3 3 3 3 3 3 3 3 3 3 3 3 3 3 3 3 3 3 3 3 3 3 3 3 3 3 3 2 3 3 3 3
4 4 4 4 4 4 4 3 3 3 3 3 3 2 3 3 3 2 2 3 3 3 3 3 3 3 3 3 3 3 3 2 3 3 3 3 2 3 2 2 2 2 3
4 4 4 4 4 3 3 3 3 2 2 2 2 2 2 2 2 2 2 2 2 2 2 2 2 2 2 2 2 2 2 2 2 2 2 2 2 2 2 2 2 1 2
3 3 3 3 3 3 3 2 2 2 2 2 2 1 1 1 1 1 1 1 2 2 2 2 2 2 1 1 1 1 1 1 1 1 1 1 1 2 2 2 1 1 1
2 2 2 2 3 2 2 2 1 2 1 1 1 1 1 1 1 1 1 1 1 1 1 1 1 1 1 1 1 1 1 1 1 1 1 1 1 1 1 1 1 0 -0
1 1 1 2 2 2 1 1 1 1 1 1 0 0 0 0 0 -0 -0 -0 0 0 0 0 0 0 0 0 0 -0 -0 -0 -0 -0 -0 -0 0 0 -0 -0 0 -0 -1
0 0 1 1 1 1 1 0 0 0 0 0 -0 -0 -0 -0 -1 -1 -1 -1 -1 -1 -1 -0 -0 -0 -0 -0 -1 -1 -1 -1 -1 -1 -1 -1 -1 -1 -1 -1 -1 -1 -1
-1 -0 -0 0 0 0 0 -0 -0 -1 -1 -1 -1 -1 -1 -1 -1 -1 -1 -1 -1 -1 -1 -1 -1 -1 -1 -1 -1 -1 -1 -1 -1 -2 -2 -1 -1 -1 -1 -1 -2 -2 -2
-1 -1 -1 -1 -1 -1 -1 -1 -1 -1 -1 -1 -1 -1 -1 -2 -2 -2 -2 -2 -2 -2 -2 -2 -2 -2 -2 -2 -2 -2 -2 -2 -2 -2 -2 -2 -2 -2 -2 -2 -2 -2 -2
-2 -2 -2 -2 -2 -1 -1 -1 -1 -2 -2 -2 -2 -2 -2 -2 -2 -2 -3 -3 -3 -3 -2 -2 -2 -2 -2 -2 -2 -2 -2 -2 -2 -2 -3 -3 -3 -3 -3 -3 -3 -3 -3
-3 -3 -3 -2 -2 -2 -2 -2 -2 -2 -3 -3 -3 -3 -3 -3 -3 -3 -3 -3 -3 -3 -3 -3 -3 -3 -3 -3 -3 -3 -3 -3 -3 -3 -3 -3 -3 -3 -3 -3 -3 -3 -3
-4 -4 -4 -3 -3 -3 -3 -3 -3 -3 -3 -3 -3 -3 -4 -4 -4 -4 -4 -4 -4 -4 -4 -4 -4 -4 -4 -3 -4 -4 -4 -4 -4 -4 -4 -4 -4 -4 -4 -4 -4 -4 -4
-4 -4 -4 -4 -4 -4 -4 -4 -4 -4 -4 -4 -4 -4 -5 -5 -5 -5 -4 -4 -4 -4 -4 -4 -4 -4 -4 -4 -4 -4 -5 -5 -5 -5 -5 -5 -4 -4 -4 -4 -4 -4 -4
-5 -5 -5 -5 -4 -4 -4 -4 -5 -5 -5 -5 -5 -5 -5 -5 -5 -5 -5 -5 -5 -5 -5 -5 -5 -5 -5 -5 -5 -5 -5 -5 -5 -5 -5 -5 -5 -5 -5 -5 -5 -5 -5
-5 -5 -5 -5 -5 -5 -5 -5 -6 -6 -6 -6 -6 -6 -6 -6 -6 -6 -6 -6 -6 -6 -6 -6 -5 -6 -6 -6 -6 -6 -6 -6 -6 -6 -6 -6 -6 -5 -5 -5 -5 -5 -5
-6 -6 -6 -6 -6 -6 -6 -6 -6 -6 -6 -6 -6 -6 -7 -7 -7 -6 -6 -6 -6 -6 -6 -6 -6 -6 -6 -6 -6 -7 -7 -7 -6 -6 -6 -6 -6 -6 -6 -6 -6 -6 -6
-7 -7 -7 -7 -7 -7 -7 -7 -7 -7 -7 -7 -7 -7 -7 -7 -7 -7 -7 -7 -7 -7 -7 -7 -7 -7 -7 -7 -7 -7 -7 -7 -7 -7 -7 -7 -7 -7 -7 -7 -7 -7 -6
-7 -7 -7 -7 -7 -7 -7 -7 -7 -7 -8 -8 -8 -8 -8 -8 -8 -8 -8 -8 -8 -8 -8 -8 -8 -8 -7 -7 -7 -8 -8 -7 -7 -7 -7 -7 -7 -7 -7 -7 -7 -7 -7
-8 -8 -8 -8 -8 -8 -8 -8 -8 -8 -8 -8 -9 -9 -9 -9 -9 -8 -8 -8 -8 -9 -9 -9 -8 -8 -8 -8 -8 -8 -8 -8 -8 -8 -8 -8 -8 -8 -8 -8 -8 -8 -7
-9 -9 -9 -8 -8 -8 -9 -9 -8 -9 -9 -9 -9 -9 -9 -9 -9 -9 -9 -9 -9 -9 -9 -9 -9 -9 -9 -9 -9 -9 -8 -8 -8 -8 -8 -8 -8 -8 -8 -8 -8 -8 -8
-10 -9 -9 -9 -9 -9 -9 -9 -9 -9 -9 -9 -9 -9 -10 -9 -9 -9 -10 -10 -10 -10 -10 -10 -10 -9 -9 -9 -9 -9 -9 -9 -9 -9 -8 -8 -8 -8 -9 -9 -9 -9 -8
-10 -10 -10 -10 -10 -10 -9 -10 -10 -10 -10 -10 -10 -10 -10 -10 -10 -10 -10 -10 -10 -10 -10 -10 -10 -10 -10 -9 -9 -9 -9 -9 -9 -9 -9 -9 -9 -9 -9 -9 -9 -9 -9
-11 -10 -10 -10 -10 -10 -10 -10 -10 -10 -10 -10 -10 -10 -10 -10 -11 -11 -10 -10 -10 -10 -10 -10 -10 -10 -10 -10 -9 -9 -9 -9 -9 -9 -9 -9 -9 -9 -9 -9 -9 -9 -9
Wind_Speed
7 7 8 8 7 7 8 8 7 6 5 4 3 2 2 2 1 2 3 3 3 3 2 2 2 2 1 1 1 1 1 1 1 2 2 2 2 1 1 2 2 3 3
5 6 7 7 8 9 9 8 8 7 6 5 3 2 2 2 2 2 2 3 4 4 3 2 2 2 2 1 1 1 1 0 0 1 1 1 1 2 2 1 1 1 3
8 7 8 9 8 9 10 9 8 7 6 5 3 2 1 1 1 2 2 3 4 4 3 3 2 3 3 3 3 3 2 1 1 1 2 1 2 2 2 2 1 1 2
6 7 8 8 9 10 9 9 9 8 6 6 6 6 4 4 4 3 3 3 4 4 4 4 3 3 3 3 3 2 2 3 2 1 0 1 1 1 2 2 2 1 1
5 7 8 8 8 7 7 7 7 7 6 6 7 7 5 4 2 2 3 3 3 3 4 4 4 4 4 4 4 3 2 3 3 2 1 1 1 1 2 3 2 2 2
3 4 5 5 4 5 5 6 6 6 6 6 6 7 7 5 4 4 4 4 2 2 3 4 4 4 4 4 4 4 4 4 3 2 2 2 2 2 2 2 3 3 3
3 3 3 5 5 5 6 6 6 6 6 6 7 7 7 7 7 6 6 5 4 3 4 4 4 4 4 5 4 4 4 4 4 4 3 3 3 2 2 2 3 3 3
2 2 3 4 5 6 6 6 6 5 6 6 6 6 6 5 5 6 5 6 5 5 4 5 5 5 5 5 5 4 4 4 4 5 4 3 3 3 3 3 2 3 3
2 2 1 1 3 4 5 6 6 5 5 6 6 5 6 5 5 5 5 5 4 4 5 5 4 4 5 5 5 4 5 5 5 5 5 4 3 3 3 3 3 4 5
3 3 2 2 2 2 3 3 5 6 5 5 6 5 5 5 5 5 6 5 5 5 5 5 5 5 5 5 5 5 5 5 5 4 5 5 4 3 3 3 3 3 5
3 3 3 2 2 2 2 3 4 4 4 5 5 5 5 5 5 5 6 6 5 5 6 6 5 6 5 5 5 5 6 6 6 5 6 6 5 5 4 4 4 4 4
3 3 3 3 2 2 2 3 3 4 5 5 4 5 5 5 5 6 5 5 5 5 6 5 5 6 5 5 6 6 6 7 7 7 7 7 5 6 5 5 5 5 5
4 4 4 4 4 3 3 3 3 4 4 4 4 4 5 5 6 6 5 5 5 5 5 5 6 6 6 6 6 6 7 7 8 7 8 7 7 7 6 6 6 6 5
3 4 4 4 4 4 3 3 3 3 3 3 4 4 5 6 6 5 5 6 6 6 6 6 6 6 7 7 7 7 7 7 7 7 7 7 8 8 8 7 7 6 6
5 4 5 5 5 5 4 4 3 3 3 3 4 5 5 5 5 5 6 6 6 7 6 6 6 6 7 7 7 7 7 7 7 7 7 8 9 10 9 7 6 6 6
6 6 6 6 6 5 5 5 4 4 3 4 5 5 5 5 5 5 6 6 6 6 6 7 7 7 7 10 12 9 7 7 7 7 7 7 8 10 11 12 11 9 8
7 6 6 6 6 6 6 6 5 4 4 5 5 5 5 6 6 6 6 6 7 6 7 7 7 8 9 12 12 12 8 7 7 7 7 6 7 8 7 9 10 10 11
6 7 7 7 6 6 5 5 5 4 5 5 5 5 5 6 6 5 6 6 6 6 6 7 7 8 9 12 12 12 8 7 7 8 8 8 7 7 7 7 7 7 8
7 7 7 7 6 6 5 4 5 5 5 5 6 5 5 6 6 6 7 6 5 6 6 6 7 8 9 11 11 11 6 6 7 8 8 8 8 11 11 7 7 7 7
6 6 6 6 6 6 5 4 5 5 6 6 6 6 5 6 6 7 7 5 5 6 6 6 6 7 8 11 12 11 6 7 6 6 8 11 11 12 12 8 7 8 8
7 7 6 6 6 6 4 5 6 7 7 6 5 5 5 6 6 6 5 5 5 5 5 6 6 7 8 10 12 12 7 7 7 7 7 8 12 13 12 11 8 10 7
8 7 7 7 6 5 4 6 7 7 5 5 5 5 5 5 5 5 5 5 5 6 6 6 6 6 7 9 11 13 12 10 8 7 6 7 12 12 12 10 10 10 8
8 7 6 8 7 5 4 6 6 5 4 4 5 5 5 5 5 5 5 5 5 5 6 6 6 5 5 7 11 13 13 13 8 7 10 11 12 11 9 10 10 8 5
8 7 7 8 8 6 6 5 6 4 4 4 5 4 4 4 4 4 4 5 5 6 6 6 6 5 5 5 6 6 7 9 8 6 9 11 11 9 8 8 6 5 5
8 7 7 8 8 8 7 6 5 4 4 4 4 4 4 4 4 4 4 5 6 7 7 6 6 6 6 8 10 8 6 6 6 5 4 4 4 5 5 5 5 4 5
8 8 8 8 8 7 7 7 5 4 4 4 4 3 3 3 3 4 4 6 6 8 9 9 8 7 9 10 11 11 10 10 9 6 5 6 6 6 6 6 6 5 6
Wind_Direction
220 200 192 183 175 173 175 177 176 177 165 163 168 175 195 196 191 192 188 177 167 165 142 131 133 123 139 152 116 105 89 68 67 54 20 350 344 19 43 65 65 55 56
209 197 188 183 184 184 185 184 183 180 179 181 180 180 180 202 204 201 203 198 191 187 182 169 173 164 151 151 149 115 102 20 98 99 78 2 329 344 338 353 24 34 46
206 198 192 193 191 192 191 191 189 185 183 176 159 141 97 72 194 213 218 228 212 206 204 198 194 185 177 189 199 175 163 187 272 142 142 164 221 294 297 292 300 355 21
209 199 193 195 197 199 193 192 188 185 182 172 176 179 190 206 218 217 218 233 222 218 216 210 212 204 196 198 208 201 191 174 208 266 292 206 196 218 269 289 289 296 298
209 204 199 199 199 192 189 190 185 186 183 181 185 192 206 217 217 212 218 220 231 224 219 214 216 217 208 205 206 210 209 195 199 216 247 259 299 251 228 255 264 284 276
219 216 204 190 191 185 181 181 182 188 187 188 191 197 204 205 205 213 220 223 231 233 223 218 218 225 218 210 211 208 209 211 207 215 222 222 220 228 233 251 257 265 273
224 222 208 194 190 187 185 183 184 193 194 195 199 203 206 204 208 212 217 223 225 232 227 226 221 225 226 218 209 208 212 213 210 213 227 234 237 233 243 247 262 276 286
269 242 227 210 199 195 191 189 192 200 199 202 209 208 207 208 217 217 216 220 226 229 228 226 225 229 226 223 213 215 218 216 218 224 225 237 240 237 235 237 238 268 276
316 290 270 235 218 202 198 195 198 206 207 209 211 212 208 212 220 221 219 221 227 236 227 222 221 227 229 221 213 222 221 218 223 227 227 236 243 237 239 232 219 224 248
333 328 314 290 268 231 211 203 204 210 214 213 213 220 215 217 220 221 223 225 227 228 223 226 223 224 230 226 217 224 222 220 226 226 223 230 237 235 234 229 233 237 238
319 320 322 325 308 288 234 223 221 220 219 218 221 223 220 220 220 224 229 228 229 223 223 226 226 226 231 230 223 226 218 220 227 231 228 233 232 232 230 227 228 236 239
328 330 329 329 310 280 253 240 235 230 229 222 221 224 222 218 220 227 233 231 230 228 226 223 229 230 230 230 225 225 222 220 224 227 227 234 234 234 229 226 230 234 235
342 340 340 329 312 293 276 266 258 251 247 230 226 231 229 224 224 229 232 229 228 231 231 224 226 231 230 233 234 229 226 225 226 225 225 229 227 234 234 228 231 235 239
322 327 324 320 319 312 297 287 283 275 265 247 242 239 236 232 231 231 231 230 226 226 229 234 231 235 233 236 237 232 229 225 229 230 230 227 228 230 232 233 232 231 232
314 312 309 307 308 307 299 285 282 282 272 256 254 253 251 244 239 235 231 231 229 228 230 234 237 237 236 234 233 229 229 226 227 231 233 234 235 237 235 236 229 225 228
296 297 300 303 297 293 293 290 283 279 267 256 257 259 253 248 243 240 234 230 227 228 230 232 234 238 241 239 236 232 229 229 228 232 237 240 242 245 245 245 241 232 224
287 290 295 292 289 284 280 274 273 273 267 263 262 258 249 247 246 244 240 235 229 228 232 234 233 236 242 238 237 237 230 229 228 227 231 239 241 243 242 246 248 249 249
293 297 299 299 296 291 286 282 280 275 271 269 267 260 250 248 248 245 243 241 236 229 231 235 235 239 242 239 237 237 233 230 230 229 227 231 236 237 237 236 241 246 250
294 296 295 295 295 293 290 286 282 276 273 271 271 266 254 250 247 245 244 242 237 237 236 237 234 236 244 240 238 238 229 229 232 232 228 227 232 238 238 233 238 248 255
305 303 303 302 297 293 290 283 277 274 271 272 274 272 262 252 245 245 245 245 238 238 239 243 239 235 241 240 239 237 227 228 232 234 232 234 235 237 237 228 228 240 246
313 311 308 303 295 294 291 279 275 270 271 276 275 271 266 257 250 250 245 238 236 237 238 243 245 240 241 240 240 237 227 224 228 233 234 235 238 240 240 240 235 241 242
316 314 311 307 306 305 294 285 275 274 276 273 270 269 268 264 259 248 245 235 228 232 237 240 245 245 243 243 241 240 239 235 229 233 234 234 237 241 242 244 244 247 248
313 312 308 308 312 312 299 288 287 285 280 273 269 271 273 269 262 250 242 238 229 230 235 234 239 244 242 241 243 244 246 242 237 236 235 236 238 240 243 246 246 244 240
316 316 315 313 314 316 310 293 293 291 280 274 274 273 272 272 265 256 241 236 232 232 235 235 239 243 244 242 241 239 242 244 241 242 240 240 242 240 238 239 244 236 227
318 317 312 308 307 313 312 308 303 294 284 278 273 272 269 266 266 264 251 247 243 238 239 239 238 238 244 246 246 244 239 233 234 232 237 235 230 230 229 228 230 228 223
318 319 316 310 308 311 311 311 308 295 281 280 276 269 264 261 261 268 278 270 263 261 258 255 253 250 252 257 255 252 252 250 241 235 231 231 228 227 225 225 226 224 222
Height
1483 1485 1486 1489 1491 1493 1495 1497 1499 1501 1503 1504 1505 1506 1508 1509 1510 1512 1513 1514 1515 1516 1517 1518 1518 1519 1520 1521 1521 1522 1523 1524 1525 1525 1526 1527 1528 1528 1529 1530 1531 1531 1531
1479 1480 1482 1484 1486 1488 1491 1493 1495 1497 1499 1500 1502 1503 1505 1506 1507 1508 1509 1511 1512 1512 1513 1514 1515 1516 1517 1517 1518 1519 1519 1520 1522 1522 1523 1524 1525 1525 1526 1527 1527 1528 1528
1474 1476 1478 1480 1482 1484 1486 1488 1491 1493 1495 1497 1498 1500 1501 1502 1503 1503 1505 1507 1508 1509 1509 1510 1511 1512 1513 1513 1514 1515 1516 1516 1518 1520 1521 1521 1521 1521 1522 1522 1524 1524 1525
1471 1472 1474 1476 1477 1480 1482 1485 1487 1489 1491 1492 1494 1494 1495 1496 1497 1499 1500 1502 1503 1504 1505 1506 1507 1508 1508 1509 1511 1512 1513 1513 1514 1516 1517 1519 1518 1519 1517 1518 1519 1520 1521
1467 1468 1470 1472 1474 1477 1479 1481 1483 1485 1486 1488 1489 1490 1491 1493 1494 1495 1496 1497 1498 1499 1501 1502 1502 1503 1504 1505 1506 1507 1509 1509 1510 1511 1513 1514 1514 1515 1514 1513 1514 1515 1516
1465 1466 1467 1469 1471 1473 1475 1477 1479 1480 1482 1483 1485 1486 1487 1488 1489 1490 1490 1491 1493 1494 1495 1497 1498 1499 1500 1500 1502 1503 1504 1505 1506 1507 1508 1509 1510 1510 1510 1509 1509 1510 1511
1462 1463 1464 1465 1467 1468 1470 1472 1474 1475 1477 1479 1480 1481 1482 1483 1484 1485 1486 1486 1487 1488 1490 1491 1492 1493 1495 1496 1497 1498 1499 1500 1501 1502 1504 1505 1505 1506 1506 1506 1505 1505 1506
1461 1461 1461 1462 1463 1465 1466 1468 1469 1471 1472 1474 1475 1476 1477 1478 1479 1480 1481 1482 1482 1483 1484 1486 1487 1488 1489 1491 1492 1492 1494 1495 1496 1497 1498 1499 1500 1501 1502 1502 1502 1502 1501
1460 1460 1460 1460 1461 1462 1463 1464 1465 1467 1468 1469 1470 1471 1472 1473 1473 1474 1476 1476 1477 1478 1479 1480 1481 1482 1484 1485 1486 1487 1488 1489 1490 1491 1493 1494 1495 1496 1497 1498 1499 1500 1497
1459 1458 1458 1458 1459 1459 1460 1461 1462 1462 1463 1464 1465 1465 1466 1467 1468 1469 1469 1470 1471 1472 1473 1474 1475 1476 1478 1479 1480 1481 1482 1484 1484 1486 1487 1488 1489 1490 1491 1492 1493 1494 1494
1457 1456 1456 1456 1456 1457 1457 1457 1457 1458 1458 1459 1459 1460 1460 1461 1462 1462 1463 1465 1466 1467 1467 1468 1469 1470 1471 1473 1474 1475 1476 1477 1478 1480 1481 1482 1483 1484 1485 1486 1487 1488 1488
1456 1455 1454 1454 1453 1453 1453 1453 1453 1453 1454 1454 1454 1454 1454 1455 1455 1456 1457 1459 1459 1461 1461 1462 1463 1464 1465 1466 1468 1469 1470 1471 1472 1473 1475 1476 1477 1478 1479 1480 1481 1482 1483
1455 1453 1452 1451 1451 1450 1450 1449 1449 1449 1449 1449 1449 1449 1449 1449 1449 1450 1451 1452 1453 1454 1455 1456 1457 1458 1459 1461 1462 1463 1464 1465 1466 1467 1468 1470 1471 1472 1473 1474 1475 1476 1477
1454 1452 1450 1449 1448 1447 1446 1445 1445 1445 1444 1444 1443 1443 1443 1443 1443 1444 1445 1446 1447 1448 1449 1450 1451 1452 1453 1454 1456 1457 1458 1459 1460 1461 1462 1463 1464 1465 1467 1468 1468 1470 1470
1451 1450 1448 1446 1445 1443 1442 1441 1441 1440 1439 1439 1438 1438 1438 1438 1438 1438 1439 1440 1441 1442 1443 1444 1444 1446 1447 1448 1449 1451 1451 1452 1453 1454 1456 1457 1458 1459 1461 1462 1462 1464 1464
1449 1447 1445 1442 1441 1439 1438 1437 1436 1435 1434 1433 1433 1432 1432 1432 1432 1432 1433 1434 1434 1435 1436 1437 1438 1439 1440 1442 1443 1445 1445 1446 1447 1448 1449 1451 1452 1452 1454 1455 1456 1458 1458
1446 1444 1441 1439 1437 1435 1434 1432 1431 1430 1429 1428 1427 1427 1426 1426 1426 1427 1427 1427 1428 1429 1430 1431 1432 1432 1434 1435 1437 1438 1439 1440 1441 1442 1443 1444 1445 1446 1447 1448 1450 1451 1452
1443 1440 1438 1435 1433 1431 1429 1428 1427 1426 1424 1423 1422 1421 1421 1420 1420 1421 1421 1421 1422 1423 1423 1424 1425 1426 1427 1429 1431 1432 1433 1434 1435 1436 1437 1438 1439 1440 1441 1442 1443 1444 1445
1440 1437 1434 1431 1428 1426 1425 1423 1422 1421 1419 1418 1417 1416 1416 1415 1415 1414 1415 1415 1416 1416 1417 1418 1419 1420 1421 1423 1424 1426 1427 1427 1428 1430 1431 1432 1433 1434 1436 1436 1436 1437 1438
1436 1433 1430 1427 1424 1422 1420 1418 1416 1415 1414 1413 1412 1411 1410 1410 1409 1409 1409 1410 1410 1410 1411 1412 1413 1414 1415 1416 1418 1420 1421 1421 1422 1423 1424 1426 1427 1428 1429 1430 1430 1430 1431
1432 1429 1426 1423 1420 1418 1415 1413 1411 1409 1408 1408 1407 1406 1405 1405 1404 1404 1404 1404 1405 1405 1405 1406 1407 1408 1409 1410 1412 1413 1415 1415 1416 1417 1418 1419 1420 1422 1423 1424 1424 1425 1426
1428 1425 1422 1419 1416 1414 1411 1408 1405 1405 1404 1403 1402 1401 1400 1400 1399 1399 1399 1399 1399 1399 1400 1400 1400 1401 1403 1404 1405 1407 1409 1410 1410 1411 1412 1413 1414 1415 1416 1417 1418 1419 1420
1425 1422 1419 1415 1412 1410 1407 1404 1402 1401 1399 1398 1397 1396 1395 1395 1394 1394 1393 1394 1394 1394 1394 1394 1394 1395 1397 1398 1400 1401 1402 1403 1404 1405 1406 1407 1408 1409 1410 1411 1412 1413 1414
1422 1419 1415 1412 1409 1406 1404 1401 1399 1397 1395 1394 1392 1392 1391 1390 1389 1389 1389 1388 1388 1388 1389 1389 1389 1390 1391 1392 1393 1394 1396 1397 1398 1399 1400 1401 1402 1403 1403 1404 1405 1406 1407
1419 1416 1412 1409 1406 1403 1400 1398 1396 1394 1392 1390 1389 1387 1387 1386 1385 1384 1384 1384 1383 1384 1384 1384 1385 1385 1385 1386 1388 1389 1390 1391 1392 1392 1393 1394 1395 1395 1396 1397 1398 1399 1400
1416 1413 1409 1406 1402 1400 1397 1394 1392 1390 1388 1386 1385 1383 1382 1382 1381 1380 1379 1379 1380 1380 1380 1380 1380 1380 1381 1382 1382 1383 1384 1385 1386 1387 1386 1387 1388 1388 1389 1390 1391 1392 1393